This is the latest recevied weather packets stored in our database for station/object DO6DD-13. If no packets are shown the sender has not sent any weather packets the latest 10 day(s).
| Time | Temp. | Humidity | Pressure | Rain* | Wind** | Luminosity | Snow |
|---|---|---|---|---|---|---|---|
| 1777395018 | 15.56° C | 32% | 1024.1 hPa | - | - | 32 W/m² | - |
| 1777394417 | 16.11° C | 32% | 1024.1 hPa | - | - | 38 W/m² | - |
| 1777393817 | 16.11° C | 32% | 1024.2 hPa | - | - | 42 W/m² | - |
| 1777393216 | 16.11° C | 31% | 1024.2 hPa | - | - | 46 W/m² | - |
| 1777392616 | 16.11° C | 31% | 1024.1 hPa | - | - | 50 W/m² | - |
| 1777392015 | 16.11° C | 31% | 1024.2 hPa | - | - | 54 W/m² | - |
| 1777391415 | 16.11° C | 31% | 1024.1 hPa | - | - | 58 W/m² | - |
| 1777390824 | 16.67° C | 32% | 1024 hPa | - | - | 62 W/m² | - |
| 1777390223 | 16.67° C | 33% | 1024 hPa | - | - | 66 W/m² | - |
| 1777389623 | 16.67° C | 33% | 1024 hPa | - | - | 234 W/m² | - |
| 1777389023 | 17.22° C | 33% | 1024 hPa | - | - | 486 W/m² | - |
| 1777388422 | 17.22° C | 35% | 1024.1 hPa | - | - | 512 W/m² | - |
| 1777387822 | 17.22° C | 35% | 1024.1 hPa | - | - | 536 W/m² | - |
| 1777387221 | 17.22° C | 35% | 1024.2 hPa | - | - | 558 W/m² | - |
| 1777386621 | 16.67° C | 34% | 1024.3 hPa | - | - | 580 W/m² | - |
| 1777386020 | 17.22° C | 33% | 1024.4 hPa | - | - | 602 W/m² | - |
| 1777385420 | 17.78° C | 34% | 1024.4 hPa | - | - | 620 W/m² | - |
| 1777384819 | 17.78° C | 34% | 1024.4 hPa | - | - | 638 W/m² | - |
| 1777384219 | 17.22° C | 34% | 1024.5 hPa | - | - | 656 W/m² | - |
| 1777383618 | 17.78° C | 34% | 1024.6 hPa | - | - | 674 W/m² | - |
| 1777383018 | 17.22° C | 34% | 1024.5 hPa | - | - | 690 W/m² | - |
| 1777382417 | 17.78° C | 33% | 1024.5 hPa | - | - | 702 W/m² | - |
| 1777381817 | 17.22° C | 34% | 1024.7 hPa | - | - | 716 W/m² | - |
| 1777381216 | 16.67° C | 33% | 1024.7 hPa | - | - | 730 W/m² | - |
| 1777380616 | 17.22° C | 34% | 1024.8 hPa | - | - | 740 W/m² | - |
* Rain since midnight (hover to see other rain measurements)
** Current wind speed in m/s (hover to see current wind gust speed)